GW4719 Weather Reports


time (UTC)temp
F
wind
direction
speed
knots
gust
knots
rain 1hr
in
rain 24hr
in
rain mn
in
humidity
%
barometer
mb
20260508023258 54 267 4.3 6.1 0.00 0.00 0.00 45 1015.1
20260508022754 53 272 7.8 12.2 0.00 0.00 0.00 44 1014.8
20260508022251 53 304 0.9 2.6 0.00 0.00 0.00 45 1014.8
20260508021748 53 298 1.7 2.6 0.00 0.00 0.00 46 1015.0
20260508021243 54 305 1.7 7.8 0.00 0.00 0.00 45 1014.8
20260508020741 54 276 2.6 5.2 0.00 0.00 0.00 45 1014.6
20260508020238 54 308 3.5 6.1 0.00 0.00 0.00 45 1014.7
20260508015735 54 302 3.5 6.1 0.00 0.00 0.00 45 1014.6
20260508015232 54 287 0.9 0.9 0.00 0.00 0.00 45 1014.6
20260508014729 54 274 3.5 5.2 0.00 0.00 0.00 45 1014.8
20260508014226 55 262 0.9 3.5 0.00 0.00 0.00 44 1014.6
20260508013721 55 290 2.6 2.6 0.00 0.00 0.00 44 1014.4
20260508013218 55 290 2.6 2.6 0.00 0.00 0.00 44 1014.6
20260508012716 55 233 3.5 6.1 0.00 0.00 0.00 44 1014.4
20260508012212 55 261 1.7 3.5 0.00 0.00 0.00 44 1014.3
20260508011711 55 276 2.6 2.6 0.00 0.00 0.00 44 1014.1
20260508011208 55 276 2.6 3.5 0.00 0.00 0.00 43 1014.3
20260508010704 56 237 3.5 5.2 0.00 0.00 0.00 43 1014.0
20260508010202 56 252 2.6 6.1 0.00 0.00 0.00 43 1014.0
20260508005659 56 251 2.6 3.5 0.00 0.00 0.00 43 1014.0
20260508005156 56 252 4.3 7.8 0.00 0.00 0.00 43 1013.7
20260508004651 56 263 0.9 1.7 0.00 0.00 0.00 44 1013.7
20260508004148 56 268 0.9 0.9 0.00 0.00 0.00 43 1013.7
20260508003645 56 268 0.0 0.9 0.00 0.00 0.00 43 1013.8
20260508003142 56 268 0.9 3.5 0.00 0.00 0.00 42 1013.6
20260508002633 57 329 4.3 5.2 0.00 0.00 0.00 42 1013.7
20260508002131 57 321 2.6 9.6 0.00 0.00 0.00 42 1013.5
20260508001625 57 313 0.0 0.9 0.00 0.00 0.00 42 1013.5
20260508001122 57 314 3.5 5.2 0.00 0.00 0.00 42 1013.4
20260508000617 57 310 1.7 7.8 0.00 0.00 0.00 41 1013.5
20260508000115 58 291 2.6 9.6 0.00 0.00 0.00 41 1013.3
20260507235612 58 295 7.0 7.8 0.00 0.00 0.00 41 1013.2
20260507235109 58 280 2.6 2.6 0.00 0.00 0.00 42 1013.1
20260507234606 58 299 2.6 6.1 0.00 0.00 0.00 41 1013.1
20260507234102 58 306 4.3 5.2 0.00 0.00 0.00 41 1013.0
20260507233559 59 291 2.6 3.5 0.00 0.00 0.00 40 1013.0
20260507233058 60 341 3.5 7.0 0.00 0.00 0.00 40 1012.7
20260507232553 60 322 2.6 6.1 0.00 0.00 0.00 39 1012.7
20260507232051 59 350 2.6 7.8 0.00 0.00 0.00 39 1012.9
20260507231547 59 305 5.2 6.1 0.00 0.00 0.00 40 1013.0
20260507231045 60 318 3.5 3.5 0.00 0.00 0.00 40 1012.5
20260507230541 61 294 3.5 8.7 0.00 0.00 0.00 39 1012.6
20260507230038 61 333 2.6 5.2 0.00 0.00 0.00 38 1012.3
20260507225533 63 327 3.5 5.2 0.00 0.00 0.00 38 1012.2
20260507225029 62 333 2.6 3.5 0.00 0.00 0.00 39 1012.4
20260507224525 63 348 1.7 3.5 0.00 0.00 0.00 40 1012.3
20260507224022 64 286 5.2 9.6 0.00 0.00 0.00 37 1012.2
20260507223518 65 298 4.3 6.1 0.00 0.00 0.00 35 1012.1
20260507223016 66 298 4.3 6.1 0.00 0.00 0.00 35 1012.0
20260507222513 65 243 3.5 6.1 0.00 0.00 0.00 35 1011.9
20260507222008 65 267 3.5 8.7 0.00 0.00 0.00 34 1011.6
20260507221505 65 311 3.5 7.0 0.00 0.00 0.00 36 1011.6
20260507221002 65 327 1.7 7.8 0.00 0.00 0.00 35 1011.6
20260507220459 64 268 3.5 7.8 0.00 0.00 0.00 36 1011.9
20260507215956 65 307 3.5 7.8 0.00 0.00 0.00 37 1011.5
20260507215452 64 265 5.2 11.3 0.00 0.00 0.00 39 1011.5
20260507214950 64 336 6.1 7.0 0.00 0.00 0.00 37 1011.2
20260507214447 66 348 1.7 5.2 0.00 0.00 0.00 37 1011.2
20260507213943 66 327 2.6 5.2 0.00 0.00 0.00 37 1011.3
20260507213440 66 273 4.3 7.0 0.00 0.00 0.00 37 1011.2
20260507212937 64 288 2.6 6.1 0.00 0.00 0.00 39 1011.5
20260507212432 64 345 3.5 6.1 0.00 0.00 0.00 39 1011.1
20260507211930 66 298 5.2 7.0 0.00 0.00 0.00 37 1011.3
20260507211426 65 313 5.2 9.6 0.00 0.00 0.00 37 1011.2
20260507210923 65 278 6.1 8.7 0.00 0.00 0.00 37 1010.9
20260507210420 65 350 1.7 3.5 0.00 0.00 0.00 37 1010.9
20260507205916 66 337 2.6 5.2 0.00 0.00 0.00 38 1010.9
20260507205414 65 320 5.2 6.1 0.00 0.00 0.00 39 1011.2
20260507204910 65 323 0.9 6.1 0.00 0.00 0.00 39 1011.4
20260507204406 65 10 4.3 6.1 0.00 0.00 0.00 39 1011.1
20260507203904 65 341 3.5 6.1 0.00 0.00 0.00 38 1010.9
20260507203402 65 326 3.5 9.6 0.00 0.00 0.00 39 1010.9
20260507202858 66 316 2.6 7.8 0.00 0.00 0.00 37 1011.1
20260507202354 66 295 4.3 7.0 0.00 0.00 0.00 40 1011.0
20260507201850 65 5 3.5 7.8 0.00 0.00 0.00 41 1011.0
20260507201346 65 309 4.3 7.8 0.00 0.00 0.00 40 1011.1
20260507200842 66 305 5.2 13.9 0.00 0.00 0.00 39 1011.0
20260507200338 66 275 3.5 7.0 0.00 0.00 0.00 39 1011.0
20260507195834 67 345 5.2 7.0 0.00 0.00 0.00 38 1011.0
20260507195332 66 328 0.9 6.1 0.00 0.00 0.00 37 1011.0
20260507194829 67 298 4.3 7.8 0.00 0.00 0.00 39 1011.0
20260507194325 66 354 2.6 3.5 0.00 0.00 0.00 40 1011.2
20260507193822 65 349 4.3 6.1 0.00 0.00 0.00 39 1011.2
20260507193319 64 345 3.5 5.2 0.00 0.00 0.00 43 1011.3
20260507192814 65 272 2.6 5.2 0.00 0.00 0.00 40 1011.2
20260507192312 65 331 4.3 7.8 0.00 0.00 0.00 40 1011.4
20260507191808 65 308 2.6 7.8 0.00 0.00 0.00 43 1011.1
20260507191304 65 351 4.3 7.0 0.00 0.00 0.00 41 1011.4
20260507190801 64 328 1.7 6.1 0.00 0.00 0.00 42 1011.5
20260507190300 64 270 3.5 7.0 0.00 0.00 0.00 43 1011.4
20260507185758 64 306 3.5 7.8 0.00 0.00 0.00 44 1011.4
20260507185254 65 276 3.5 3.5 0.00 0.00 0.00 42 1011.6
20260507184752 66 222 2.6 6.1 0.00 0.00 0.00 39 1011.7
20260507184250 67 304 0.9 2.6 0.00 0.00 0.00 41 1011.5
20260507183747 69 307 2.6 5.2 0.00 0.00 0.00 42 1011.6
20260507183244 68 238 2.6 7.8 0.00 0.00 0.00 40 1011.8
20260507182742 68 240 2.6 3.5 0.00 0.00 0.00 41 1011.6
20260507182241 67 233 0.9 5.2 0.00 0.00 0.00 44 1011.7
20260507181739 67 269 4.3 7.0 0.00 0.00 0.00 43 1011.5
20260507181235 66 252 5.2 8.7 0.00 0.00 0.00 43 1011.6
20260507180732 65 254 5.2 6.1 0.00 0.00 0.00 45 1011.5
20260507180229 66 306 4.3 6.1 0.00 0.00 0.00 46 1011.8
20260507175724 63 298 0.0 1.7 0.00 0.00 0.00 52 1011.9
20260507175221 61 298 3.5 5.2 0.00 0.00 0.00 52 1012.2
20260507174719 60 320 0.9 3.5 0.00 0.00 0.00 53 1012.1
20260507174217 60 319 1.7 6.1 0.00 0.00 0.00 52 1012.3
20260507173714 60 257 3.5 6.1 0.00 0.00 0.00 53 1012.3
20260507173211 60 283 0.9 3.5 0.00 0.00 0.00 54 1012.4
20260507172707 60 324 1.7 7.0 0.00 0.00 0.00 53 1012.5
20260507172204 60 316 1.7 3.5 0.00 0.00 0.00 52 1012.5
20260507171704 61 298 0.0 1.7 0.00 0.00 0.00 54 1012.7
20260507171202 61 299 0.9 3.5 0.00 0.00 0.00 55 1012.6
20260507170659 60 302 1.7 5.2 0.00 0.00 0.00 54 1012.9
20260507170156 60 292 2.6 5.2 0.00 0.00 0.00 54 1012.9
20260507165651 60 296 2.6 3.5 0.00 0.00 0.00 54 1013.0
20260507165148 60 345 1.7 2.6 0.00 0.00 0.00 54 1013.2
20260507164644 60 326 2.6 2.6 0.00 0.00 0.00 53 1013.0
20260507164141 63 307 1.7 3.5 0.00 0.00 0.00 51 1013.2
20260507163638 65 319 2.6 3.5 0.00 0.00 0.00 49 1013.2
20260507163136 61 316 0.0 1.7 0.00 0.00 0.00 55 1013.0
20260507162632 61 356 1.7 6.1 0.00 0.00 0.00 52 1013.3
20260507162128 61 357 1.7 3.5 0.00 0.00 0.00 56 1013.4
20260507161624 60 357 0.9 6.1 0.00 0.00 0.00 56 1013.5
20260507161121 59 358 2.6 3.5 0.00 0.00 0.00 57 1013.4
20260507160617 58 350 0.9 1.7 0.00 0.00 0.00 59 1013.6
20260507160114 58 350 0.9 3.5 0.00 0.00 0.00 59 1013.8
20260507155609 57 351 0.9 2.6 0.00 0.00 0.00 59 1013.8
20260507155107 57 351 0.0 0.9 0.00 0.00 0.00 59 1013.9
20260507154603 58 351 0.9 1.7 0.00 0.00 0.00 62 1013.9
20260507154100 57 351 0.9 1.7 0.00 0.00 0.00 61 1014.0
20260507153557 56 350 0.9 3.5 0.00 0.00 0.00 62 1014.0
20260507153054 56 341 0.0 2.6 0.00 0.00 0.00 60 1014.0
20260507152550 57 336 2.6 3.5 0.00 0.00 0.00 61 1014.2
20260507152046 58 9 3.5 6.1 0.00 0.00 0.00 60 1013.9
20260507151542 57 16 1.7 5.2 0.00 0.00 0.00 62 1014.0
20260507151039 58 34 1.7 3.5 0.00 0.00 0.00 61 1014.2
20260507150536 59 17 0.0 0.9 0.00 0.00 0.00 62 1014.3
20260507150033 58 17 0.0 0.9 0.00 0.00 0.00 66 1014.3
20260507145528 57 17 0.9 2.6 0.00 0.00 0.00 68 1014.5
20260507145026 56 17 0.9 2.6 0.00 0.00 0.00 72 1014.5
20260507144522 56 17 0.0 0.9 0.00 0.00 0.00 71 1014.5
20260507144020 56 17 0.9 1.7 0.00 0.00 0.00 73 1014.7
20260507143517 55 17 0.0 1.7 0.00 0.00 0.00 74 1014.6
20260507143014 55 17 0.9 1.7 0.00 0.00 0.00 74 1014.7
20260507142509 55 17 0.0 1.7 0.00 0.00 0.00 76 1015.0
20260507142007 53 17 0.0 0.9 0.00 0.00 0.00 78 1014.8
20260507141502 53 17 0.0 0.9 0.00 0.00 0.00 80 1015.1
20260507140959 52 17 0.0 0.9 0.00 0.00 0.00 81 1015.3
20260507140456 51 17 0.0 0.9 0.00 0.00 0.00 82 1015.4
20260507135953 51 17 0.9 0.9 0.00 0.00 0.00 83 1015.2
20260507135450 51 17 1.7 2.6 0.00 0.00 0.00 84 1015.2
20260507134947 51 17 0.9 0.9 0.00 0.00 0.00 84 1015.4
20260507134444 51 17 0.9 1.7 0.00 0.00 0.00 84 1015.3
20260507133940 50 17 0.9 0.9 0.00 0.00 0.00 85 1015.4
20260507133436 50 17 0.9 1.7 0.00 0.00 0.00 85 1015.6
20260507132935 50 17 0.0 0.9 0.00 0.00 0.00 85 1015.5
20260507132431 50 17 0.0 0.9 0.00 0.00 0.00 85 1015.7
20260507131927 50 17 0.0 0.0 0.00 0.00 0.00 86 1015.9
20260507131424 50 17 0.0 0.0 0.00 0.00 0.00 86 1015.7
20260507130921 50 17 0.0 0.0 0.00 0.00 0.00 86 1015.7
20260507130418 50 17 0.0 0.9 0.00 0.00 0.00 85 1015.7
20260507125917 49 17 0.0 0.9 0.00 0.00 0.00 85 1015.6
20260507125415 49 17 0.0 0.0 0.00 0.00 0.00 85 1015.8
20260507124912 49 17 0.0 0.0 0.00 0.00 0.00 85 1015.9
20260507124407 49 17 0.0 0.0 0.00 0.00 0.00 86 1015.6
20260507123906 49 17 0.0 0.9 0.00 0.00 0.00 86 1015.5
20260507123403 50 17 0.0 0.9 0.00 0.00 0.00 85 1015.6
20260507122859 50 17 0.0 0.0 0.00 0.00 0.00 86 1015.5
20260507122355 50 17 0.0 0.9 0.00 0.00 0.00 86 1015.3
20260507121851 50 17 0.0 0.0 0.00 0.00 0.00 85 1015.5
20260507121347 50 17 0.0 0.9 0.00 0.00 0.00 85 1015.3
20260507120844 50 17 0.9 0.9 0.00 0.00 0.00 86 1015.3
20260507120340 50 17 0.0 0.0 0.00 0.00 0.00 86 1015.1
20260507115836 50 17 0.0 0.0 0.00 0.00 0.00 86 1015.2
20260507115327 50 17 0.0 0.0 0.00 0.00 0.00 87 1015.1
20260507114822 49 17 0.0 0.0 0.00 0.00 0.00 86 1015.1
20260507114320 49 17 0.0 0.0 0.00 0.00 0.00 87 1015.1
20260507113817 49 17 0.0 0.0 0.00 0.00 0.00 87 1015.1
20260507113314 49 17 0.0 0.0 0.00 0.00 0.00 87 1014.8
20260507112812 49 17 0.0 0.0 0.00 0.00 0.00 87 1014.7
20260507112308 49 17 0.0 0.0 0.00 0.00 0.00 87 1014.7
20260507111807 49 17 0.0 0.0 0.00 0.00 0.00 87 1014.7
20260507111303 49 17 0.0 0.0 0.00 0.00 0.00 88 1014.8
20260507110759 49 17 0.0 0.0 0.00 0.00 0.00 88 1015.0
20260507110255 49 17 0.0 0.0 0.00 0.00 0.00 88 1014.6
20260507105752 49 17 0.0 0.0 0.00 0.00 0.00 88 1014.6
20260507105248 49 17 0.0 0.0 0.00 0.00 0.00 88 1014.5
20260507104745 49 17 0.0 0.0 0.00 0.00 0.00 88 1014.4
20260507104242 49 17 0.0 0.0 0.00 0.00 0.00 89 1014.6
20260507103738 49 17 0.0 0.0 0.00 0.00 0.00 88 1014.4
20260507103234 49 17 0.0 0.0 0.00 0.00 0.00 88 1014.4
20260507102731 49 17 0.0 0.0 0.00 0.00 0.00 89 1014.8
20260507102228 49 17 0.0 0.0 0.00 0.00 0.00 89 1014.4
20260507101724 49 17 0.0 0.0 0.00 0.00 0.00 89 1014.5
20260507101219 49 17 0.0 0.0 0.00 0.00 0.00 89 1014.5
20260507100716 49 17 0.0 0.0 0.00 0.00 0.00 90 1014.5
20260507100214 49 17 0.0 0.0 0.00 0.00 0.00 90 1014.5
20260507095712 49 17 0.0 0.0 0.00 0.00 0.00 90 1014.3
20260507095208 49 17 0.0 0.0 0.00 0.00 0.00 90 1014.3
20260507094706 49 17 0.0 0.0 0.00 0.00 0.00 90 1014.5
20260507094202 49 17 0.0 0.0 0.00 0.00 0.00 90 1014.2
20260507093659 49 17 0.0 0.0 0.00 0.00 0.00 90 1014.3
20260507093158 48 17 0.0 0.0 0.00 0.00 0.00 90 1014.2
20260507092654 49 17 0.0 0.0 0.00 0.00 0.00 90 1014.3
20260507092151 49 17 0.0 0.0 0.00 0.00 0.00 90 1014.3
20260507091647 49 17 0.0 0.0 0.00 0.00 0.00 90 1014.3
20260507091143 49 17 0.0 0.0 0.00 0.00 0.00 90 1014.3
20260507090639 49 17 0.0 0.0 0.00 0.00 0.00 90 1014.4
20260507090137 49 17 0.0 0.0 0.00 0.00 0.00 90 1014.1
20260507085633 49 17 0.0 0.0 0.00 0.00 0.00 90 1014.3
20260507085130 49 17 0.0 0.0 0.00 0.00 0.00 90 1014.4
20260507084627 49 17 0.0 0.0 0.00 0.00 0.00 90 1014.2
20260507084124 49 17 0.0 0.0 0.00 0.00 0.00 90 1013.9
20260507083620 49 17 0.0 0.0 0.00 0.00 0.00 90 1014.0
20260507083117 49 17 0.0 0.9 0.00 0.00 0.00 90 1013.7
20260507082613 49 17 0.0 0.0 0.00 0.00 0.00 90 1014.2
20260507082110 50 17 0.0 0.0 0.00 0.00 0.00 90 1014.1
20260507081606 50 17 0.0 0.0 0.00 0.00 0.00 90 1014.3
20260507081103 50 17 0.0 0.0 0.00 0.00 0.00 90 1014.1
20260507080559 50 17 0.0 0.0 0.00 0.00 0.00 89 1014.3
20260507080056 50 17 0.0 0.0 0.00 0.00 0.00 89 1014.2
20260507075550 50 17 0.0 0.0 0.00 0.00 0.00 89 1014.3
20260507075047 50 17 0.0 0.0 0.00 0.00 0.00 89 1014.5
20260507074544 50 17 0.0 0.0 0.00 0.00 0.00 89 1014.3
20260507074043 50 17 0.0 0.0 0.00 0.00 0.00 90 1014.3
20260507073538 50 17 0.0 0.0 0.00 0.00 0.00 90 1014.1
20260507073035 50 17 0.0 0.9 0.00 0.00 0.00 90 1013.9
20260507072533 50 17 0.9 0.9 0.00 0.00 0.00 90 1014.0
20260507072030 50 17 0.0 0.9 0.00 0.00 0.00 90 1014.2
20260507071527 50 17 0.0 1.7 0.00 0.00 0.00 90 1014.1
20260507071024 50 17 0.9 1.7 0.00 0.00 0.00 90 1014.2
20260507070521 51 17 0.0 0.9 0.00 0.00 0.00 90 1013.9
20260507070018 51 17 0.0 0.0 0.00 0.00 0.00 90 1014.1
20260507065514 51 17 0.0 0.0 0.00 0.00 0.00 90 1014.1
20260507065011 51 17 0.9 1.7 0.00 0.00 0.00 89 1013.8
20260507064509 51 17 0.9 1.7 0.00 0.00 0.00 90 1014.0
20260507064007 51 17 0.0 0.9 0.00 0.00 0.00 89 1013.9
20260507063504 51 17 0.9 1.7 0.00 0.00 0.00 89 1013.9
20260507063001 51 17 0.9 1.7 0.00 0.00 0.00 89 1014.0
20260507062458 52 17 0.9 1.7 0.00 0.00 0.00 88 1014.1
20260507061955 52 17 1.7 2.6 0.00 0.00 0.00 88 1013.9
20260507061453 52 17 0.9 1.7 0.00 0.00 0.00 88 1014.1
20260507060951 53 17 0.9 1.7 0.00 0.00 0.00 87 1013.9
20260507060448 53 17 0.0 0.9 0.00 0.00 0.00 87 1013.9
20260507055944 53 17 0.9 1.7 0.00 0.00 0.00 87 1014.0
20260507055440 53 17 0.9 1.7 0.00 0.00 0.00 87 1014.1
20260507054937 54 17 0.9 1.7 0.00 0.00 0.00 86 1014.1
20260507054433 54 17 1.7 2.6 0.00 0.00 0.00 86 1014.4
20260507053930 55 17 0.9 0.9 0.00 0.00 0.00 86 1014.3
20260507053422 55 17 0.0 0.0 0.00 0.00 0.00 86 1014.1
20260507052921 55 17 0.9 0.9 0.00 0.00 0.00 85 1014.2
20260507052418 55 17 0.9 1.7 0.00 0.00 0.00 85 1014.3
20260507051915 55 17 0.9 1.7 0.00 0.00 0.00 85 1013.9
20260507051413 56 17 1.7 2.6 0.00 0.00 0.00 84 1013.8
20260507050909 56 17 1.7 2.6 0.00 0.00 0.00 85 1013.9
20260507050400 56 17 0.0 0.9 0.00 0.00 0.00 85 1013.9
20260507045857 56 17 0.0 0.9 0.00 0.00 0.00 85 1013.9
20260507045353 56 17 0.0 0.9 0.00 0.00 0.00 85 1013.6
20260507044851 56 17 0.9 1.7 0.00 0.00 0.00 84 1013.7
20260507044347 56 17 0.9 1.7 0.00 0.00 0.00 85 1013.7
20260507043843 56 17 0.9 0.9 0.00 0.00 0.00 84 1013.5
20260507043339 57 17 1.7 2.6 0.00 0.00 0.00 85 1013.7
20260507042830 57 16 0.0 0.9 0.00 0.00 0.00 85 1013.9
20260507042326 57 16 0.0 0.9 0.00 0.00 0.00 84 1013.6
20260507041823 58 16 0.9 0.9 0.00 0.00 0.00 84 1013.3
20260507041319 58 16 0.0 0.9 0.00 0.00 0.00 84 1013.0
20260507040817 58 16 0.0 0.9 0.00 0.00 0.00 83 1013.1
20260507040313 58 16 2.6 3.5 0.00 0.00 0.00 83 1013.2
20260507035809 58 17 0.9 1.7 0.00 0.07 0.07 83 1012.9
20260507035306 58 17 2.6 2.6 0.00 0.07 0.07 83 1013.0
20260507034803 58 17 0.0 1.7 0.00 0.07 0.07 83 1012.4
20260507034259 58 338 1.7 2.6 0.00 0.07 0.07 82 1012.7
20260507033757 59 338 0.0 0.0 0.00 0.07 0.07 81 1013.5
20260507033255 59 338 0.9 0.9 0.00 0.07 0.07 80 1013.5
20260507032751 59 338 0.9 0.9 0.00 0.07 0.07 80 1014.1
20260507032247 59 338 0.9 1.7 0.00 0.07 0.07 80 1014.0
20260507031744 59 338 0.9 0.9 0.00 0.07 0.07 80 1014.1
20260507031241 59 338 0.9 0.9 0.00 0.07 0.07 80 1014.2
20260507030738 60 338 0.0 0.9 0.00 0.07 0.07 79 1013.8
20260507030235 60 338 0.9 1.7 0.00 0.07 0.07 80 1013.9
20260507025732 60 321 1.7 1.7 0.00 0.07 0.07 79 1014.1
20260507025229 60 282 1.7 1.7 0.00 0.07 0.07 79 1013.8
20260507024728 60 281 0.0 0.9 0.00 0.07 0.07 80 1013.4
20260507024224 60 281 0.9 1.7 0.00 0.07 0.07 79 1013.0
20260507023720 60 281 0.9 1.7 0.00 0.07 0.07 79 1013.3